Regional Weather Roundup
Issued by NWS

Home | Current Version | Previous Version | Graphics & Text | Print | Product List | Glossary Off
Versions: 1 2 3 4 5 6 7 8 9 10 11 12 13 14 15 16 17 18 19 20 21 22 23 24 25 26 27 28 29 30 31 32 33 34 35 36 37 38 39 40 41 42 43 44 45 46 47 48 49 50

000
ASUS43 KMPX 280701
RWRMN
WEATHER ROUNDUP FOR MINNESOTA
NATIONAL WEATHER SERVICE TWIN CITIES/CHANHASSEN MN
200 AM CDT SAT MAY 28 2016


NOTE: "FAIR" INDICATES FEW OR NO CLOUDS BELOW 12,000 FEET WITH NO
SIGNIFICANT WEATHER AND/OR OBSTRUCTIONS TO VISIBILITY. N/A MEANS
CURRENT SKY AND/OR WEATHER CONDITIONS ARE NOT AVAILABLE.

MNZ060>063-068>070-280800-
   Twin Cities Metro

CITY           SKY/WX    TMP DP  RH WIND       PRES   REMARKS
TWIN CITIES    CLOUDY    63  59  87 N3        29.75F
ST PAUL        CLOUDY    63  60  90 W3        29.76S
CRYSTAL        CLOUDY    61  58  90 N5        29.74F FOG
BLAINE         CLOUDY    63  63 100 NW3       29.76F FOG
EDEN PRAIRIE   CLOUDY    63  59  87 N6        29.74F
SOUTH ST PAUL  MOCLDY    64  60  90 NW3       29.75F
LAKE ELMO      FAIR      63  61  94 CALM      29.77S
$$
MNZ001>005-007-008-013>017-022>024-027-028-280800-
   Northwest Minnesota

CITY           SKY/WX    TMP DP  RH WIND       PRES   REMARKS
BEMIDJI        CLOUDY    57  54  89 E5        29.83F
HALLOCK        CLOUDY    61  59  94 CALM      29.83R
ROSEAU         PTCLDY    59  54  82 E8        29.85S
WARROAD        PTCLDY    57  54  88 E3        29.86F
THIEF RVR FALL PTCLDY    57  54  88 E7        29.84R
CROOKSTON      CLOUDY    61  57  88 SE5       29.83R
FOSSTON        CLOUDY    55  54  94 E3        29.84S
DETROIT LAKES  CLOUDY    57  54  88 CALM      29.83S
MOORHEAD       CLOUDY    59  57  94 CALM      29.81S
PARK RAPIDS    MOCLDY    58  54  86 NE3       29.81S
MAHNOMEN       CLOUDY    58  56  91 E6        29.82S
$$
MNZ006-009>011-018-025>026-280800-
   North Central Minnesota

CITY           SKY/WX    TMP DP  RH WIND       PRES   REMARKS
BAUDETTE       CLOUDY    59  53  80 NE6       29.84F
FLAG ISLAND    MOCLDY    61  55  82 E5        29.85F
INTL FALLS     CLOUDY    61  54  77 N3        29.84F
WASKISH        CLOUDY    59  55  88 NE5       29.84S
BIG FORK       DRIZZLE   57  54  88 CALM      29.84F
LONGVILLE      CLOUDY    57  55  94 N3        29.82S
GRAND RAPIDS   LGT RAIN  55  54  96 NW7       29.83S FOG
CRANE LAKE     DRIZZLE   55  54  94 CALM      29.87S
ORR            DRIZZLE   55  52  88 CALM      29.83R
COOK           DRIZZLE   55  54  94 N3        29.84F
WALKER         CLOUDY    57  55  90 NE7       29.81F
$$
MNZ012-019>021-037-280800-
   Northeast Minnesota

CITY           SKY/WX    TMP DP  RH WIND       PRES   REMARKS
DULUTH         DRIZZLE   53  51  93 E10       29.78F FOG
ELY            LGT RAIN  55  54  94 NE6       29.82F
HIBBING        CLOUDY    54  53  97 N5        29.81F
EVELETH        DRIZZLE   54  54 100 NE7       29.82F
DULUTH HARBOR  CLOUDY    46  45  93 NE17      29.80F FOG
TWO HARBORS    DRIZZLE   55  52  88 NE10G20   29.77F
SILVER BAY     CLOUDY    55  55 100 NE13G20   29.78F
GRAND MARAIS     N/A     55  54  96 NE12      29.79F
G MARAIS ARPRT HVY RAIN  55  52  88 NE9G17    29.83F
$$
MNZ029>031-032-039>041-046>048-054>057-064-280800-
   West Central Minnesota

CITY           SKY/WX    TMP DP  RH WIND       PRES   REMARKS
FERGUS FALLS   CLOUDY    61  55  82 SE3       29.78R
WHEATON        CLOUDY    61  57  88 E6        29.80F
MORRIS         MOCLDY    61  57  88 NE3       29.78F
ALEXANDRIA     CLOUDY    59  55  87 E3        29.81R
ELBOW LAKE     CLOUDY    58  56  92 E6        29.81S
WADENA         CLOUDY    55  54  94 NE5       29.81R
GLENWOOD       MOCLDY    57  55  94 N3        29.80S
APPLETON       CLOUDY    61  55  82 CALM      29.76F
ORTONVILLE     CLOUDY    61  57  88 E5        29.77F
MADISON        CLOUDY    61  57  88 E3        29.77S
WILLMAR        CLOUDY    63  59  88 CALM      29.79S
$$
MNZ033>034-036-042>043-049>051-058-059-280800-
   Central Minnesota

CITY           SKY/WX    TMP DP  RH WIND       PRES   REMARKS
ST CLOUD       CLOUDY    57  56  96 CALM      29.78F FOG
SAUK CENTRE    CLOUDY    58  56  91 CALM      29.79F
PAYNESVILLE    CLOUDY    59  59  99 CALM      29.79S
AITKIN         MIX PCPN  57  52  82 CALM      29.79F
PINE RIVER     CLOUDY    57  55  94 N5        29.84S
BRAINERD       CLOUDY    56  54  93 NE7       29.80F
STAPLES        CLOUDY    55  54  94 CALM      29.81R
LONG PRAIRIE   CLOUDY    55  54  94 N3        29.80S
LITTLE FALLS   CLOUDY    55  54  94 CALM      29.79S
LITCHFIELD     CLOUDY    61  61 100 CALM      29.78S FOG
BUFFALO        CLOUDY    59  57  93 NW5       29.78F FOG
MAPLE LAKE     CLOUDY    59  59  99 CALM      29.78F FOG
HUTCHINSON     CLOUDY    60  60  97 CALM      29.77F
$$
MNZ037-044-045-052-053-280800-
   East Central Minnesota

CITY           SKY/WX    TMP DP  RH WIND       PRES   REMARKS
PRINCETON      RAIN      57  55  94 NW3       29.78S
MORA           CLOUDY    54  52  94 N3        29.79F
CAMBRIDGE      RAIN      59  52  77 CALM      29.76S
RUSH CITY      CLOUDY    57  55  93 CALM      29.78R
MOOSE LAKE     FOG       50  48  93 NE3       29.77F VSB 1/2
HINCKLEY       CLOUDY    54  54 100 N5        29.78S
CLOQUET        FOG       52  52 100 E7        29.79S VSB 3/4
MCGREGOR       CLOUDY    55  54  94 N3        29.80F
$$
MNZ071>073-080-081-089-090-097-098-280800-
   Southwest Minnesota

CITY           SKY/WX    TMP DP  RH WIND       PRES   REMARKS
MONTEVIDEO     CLOUDY    61  57  88 SE6       29.79S
GRANITE FALLS  CLOUDY    61  58  91 NE6       29.78S
CANBY          CLOUDY    65  62  90 CALM      29.78S
MARSHALL       CLOUDY    62  60  93 NE12      29.77S
REDWOOD FALLS  CLOUDY    61  58  90 NE6       29.76F
OLIVIA         CLOUDY    59  55  88 CALM      29.77S
PIPESTONE      CLOUDY    63  59  88 NE6       29.76S
WINDOM         CLOUDY    63  61  94 CALM      29.75S
WORTHINGTON    MOCLDY    63  61  93 E9        29.75S
JACKSON        CLOUDY    64  59  82 E3        29.76S
TRACY          CLOUDY    63  62  97 NE5       29.77S FOG
SLAYTON        CLOUDY    61  59  94 N6        29.77S
$$
MNZ065>067-074>077-082>085-091>093-280800-
   South Central Minnesota

CITY           SKY/WX    TMP DP  RH WIND       PRES   REMARKS
MANKATO        CLOUDY    63  59  88 N6        29.75S
NEW ULM        MOCLDY    61  61 100 NE12      29.75S FOG
ST JAMES       CLOUDY    57  57 100 CALM      29.76R
FAIRMONT       CLOUDY    66  61  82 SE9       29.74F
GLENCOE        CLOUDY    61  61  98 N3        29.76F
FARIBAULT      CLOUDY    61  61 100 CALM      29.76S
OWATONNA       CLOUDY    63  61  94 SE5       29.76S FOG
WASECA         CLOUDY    59  57  94 E6        29.77R FOG
ALBERT LEA     CLOUDY    63  63 100 CALM      29.76S FOG
$$
MNZ078>079-086>088-094>096-280800-
   Southeast Minnesota

CITY           SKY/WX    TMP DP  RH WIND       PRES   REMARKS
ROCHESTER      CLOUDY    62  62 100 SE3       29.77F FOG
RED WING       FOG       63  61  94 CALM      29.74S VSB 1/4
STANTON        CLOUDY    61  59  94 CALM      29.74F FOG
DODGE CENTER   CLOUDY    61  59  94 CALM      29.76S FOG
WINONA         CLOUDY    66  64  94 NW3       29.74S
AUSTIN         CLOUDY    63  61  94 CALM      29.77R
PRESTON        CLOUDY    62  60  95 NW5       29.76F FOG
$$
ABBREVIATIONS USED IN REMARKS
   TC - TEMPERATURES IN CELSIUS
  WCI - WIND CHILL INDEX
   HX - HEAT INDEX
  VSB - VISIBILITY
$$




USA.gov is the U.S. government's official web portal to all federal, state and local government web resources and services.